This is the latest recevied weather packets stored in our database for station/object YO9FTR-10. If no packets are shown the sender has not sent any weather packets the latest 10 day(s).
| Time | Temp. | Humidity | Pressure | Rain* | Wind** | Luminosity | Snow |
|---|---|---|---|---|---|---|---|
| 1777454542 | 11.11° C | 48% | 1023.2 hPa | - | - | - | - |
| 1777453640 | 11.11° C | 47% | 1023.3 hPa | - | - | - | - |
| 1777452736 | 11.11° C | 46% | 1023.2 hPa | - | - | - | - |
| 1777451833 | 11.67° C | 46% | 1023.2 hPa | - | - | - | - |
| 1777450931 | 10.56° C | 46% | 1023.2 hPa | - | - | - | - |
| 1777450028 | 11.11° C | 46% | 1023.2 hPa | - | - | - | - |
| 1777449125 | 12.22° C | 42% | 1023.2 hPa | - | - | - | - |
| 1777448222 | 11.67° C | 49% | 1023.2 hPa | - | - | - | - |
| 1777447320 | 11.11° C | 47% | 1023.2 hPa | - | - | - | - |
| 1777446416 | 10.56° C | 48% | 1023.1 hPa | - | - | - | - |
| 1777445513 | 10° C | 49% | 1023.1 hPa | - | - | - | - |
| 1777444610 | 9.44° C | 54% | 1023.2 hPa | - | - | - | - |
| 1777443708 | 10° C | 59% | 1023.1 hPa | - | - | - | - |
| 1777442805 | 8.89° C | 68% | 1023.1 hPa | - | - | - | - |
| 1777441902 | 8.89° C | 68% | 1023.1 hPa | - | - | - | - |
| 1777440999 | 8.89° C | 70% | 1023 hPa | - | - | - | - |
| 1777440096 | 8.89° C | 70% | 1022.9 hPa | - | - | - | - |
| 1777439193 | 8.89° C | 71% | 1022.9 hPa | - | - | - | - |
| 1777438290 | 8.33° C | 68% | 1022.8 hPa | - | - | - | - |
| 1777437388 | 7.78° C | 72% | 1022.9 hPa | - | - | - | - |
| 1777436485 | 7.22° C | 76% | 1022.7 hPa | - | - | - | - |
| 1777435582 | 6.67° C | 74% | 1022.6 hPa | - | - | - | - |
| 1777434679 | 6.67° C | 78% | 1022.8 hPa | - | - | - | - |
| 1777433776 | 6.11° C | 77% | 1022.7 hPa | - | - | - | - |
| 1777432873 | 6.67° C | 72% | 1022.6 hPa | - | - | - | - |
* Rain since midnight (hover to see other rain measurements)
** Current wind speed in m/s (hover to see current wind gust speed)